Location: Devargunta
(16.7631°N, 80.9077°E)
Time: 18:11:36
(UTC+00:00)

Cosmos 1943 - Pass Details

Date: 19 January 2021
Orbit: 834 x 849 km, 71.0° (Epoch: 03 March)

Event Time Altitude Azimuth Distance (km) Brightness Sun altitude
Rises 12:53:17 0° 349° (N) 3,392 6.3 -7.1°
Reaches altitude 10° 12:55:46 10° 353° (N) 2,454 5.5 -7.7°
Maximum altitude 13:01:19 60° 72° (ENE) 957 3.2 -8.9°
Drops below altitude 10° 13:06:49 10° 152° (SSE) 2,440 5.5 -10.2°
Sets 13:09:17 0° 156° (SSE) 3,371 6.3 -10.7°
